Location: Te Maire Creek
(41.1333°S, 175.9167°E)
Time: 01:55:02
(UTC+00:00)

Cosmos 2219 Rocket - Pass Details

Date: 19 May 2024
Orbit: 826 x 847 km, 71.0° (Epoch: 18 June)

Event Time Altitude Azimuth Distance (km) Brightness Sun altitude
Rises 18:37:53 0° 335° (NNW) 3,401 5.3 -8.5°
Reaches altitude 10° 18:40:19 10° 333° (NNW) 2,473 4.6 -8.1°
Maximum altitude 18:46:01 80° 246° (WSW) 873 2.2 -7.1°
Drops below altitude 10° 18:51:46 10° 158° (SSE) 2,495 4.7 -6.1°
Sets 18:54:14 0° 157° (SSE) 3,433 5.4 -5.6°
